Location: ????????
(55.8351°N, 38.7040°E)
Time: 08:01:58
(UTC+00:00)

SWAS - Visible Passes

Search period start: 22 July 2024 00:00
Search period end: 01 August 2024 00:00
Orbit: 558 x 571 km, 69.9° (Epoch: 22 July)

Date Brightness Start Highest point End Pass type
(mag) Time Alt. Az. Time Alt. Az. Time Alt. Az.
22 Jul 7.8 19:57:57 10° NW 20:00:28 15° NNW 20:02:58 10° NNE visible
22 Jul 8.0 21:38:26 10° NNW 21:40:21 13° N 21:42:17 10° NE visible
22 Jul 7.2 23:16:34 10° NNW 23:20:00 23° NNE 23:23:24 10° E visible
23 Jul 7.8 19:58:27 10° NW 20:00:43 14° NNW 20:03:01 10° NNE visible
23 Jul 7.8 21:38:33 10° NNW 21:40:38 13° N 21:42:44 10° NE visible
23 Jul 6.9 23:16:34 10° NNW 23:20:11 27° NE 23:23:47 10° E visible
24 Jul 7.8 19:58:55 10° NW 20:01:00 13° N 20:03:05 10° NNE visible
24 Jul 7.7 21:38:37 10° NNW 21:40:54 14° NNE 21:43:11 10° NE visible
24 Jul 6.5 23:16:32 10° NNW 23:20:21 31° NE 23:24:07 10° ESE visible
25 Jul 7.8 19:59:21 10° NW 20:01:16 13° N 20:03:11 10° NNE visible
25 Jul 7.6 21:38:39 10° NNW 21:41:09 15° NNE 21:43:39 10° NE visible
25 Jul 6.1 23:16:31 10° NNW 23:20:28 37° NE 23:24:23 10° ESE visible
26 Jul 7.8 19:59:43 10° NNW 20:01:32 12° N 20:03:20 10° NNE visible
26 Jul 7.5 21:38:38 10° NNW 21:41:23 17° NNE 21:44:07 10° ENE visible
26 Jul 5.6 23:16:29 10° NNW 23:20:33 45° NE 23:24:36 10° ESE visible
27 Jul 7.7 20:00:01 10° NNW 20:01:47 12° N 20:03:33 10° NNE visible
27 Jul 7.3 21:38:36 10° NNW 21:41:35 18° NNE 21:44:33 10° ENE visible
27 Jul 5.1 23:16:27 10° NNW 23:20:37 56° NE 23:24:45 10° SE visible
28 Jul 7.6 20:00:14 10° NNW 20:02:02 12° N 20:03:50 10° NNE visible
28 Jul 7.1 21:38:33 10° NNW 21:41:46 20° NNE 21:44:57 10° ENE visible
28 Jul 4.7 23:16:26 10° NW 23:20:39 71° NE 23:24:49 10° SE visible
29 Jul 7.5 20:00:21 10° NNW 20:02:16 13° N 20:04:10 10° NE visible
29 Jul 6.8 21:38:30 10° NNW 21:41:55 23° NNE 21:45:18 10° E visible
29 Jul 4.4 23:16:25 10° NW 23:20:39 89° NE 23:24:50 10° SE visible
30 Jul 7.4 18:20:18 10° NW 18:22:35 14° NNW 18:24:52 10° NNE visible
30 Jul 7.4 20:00:25 10° NNW 20:02:30 13° N 20:04:33 10° NE visible
30 Jul 6.5 21:38:25 10° NNW 21:42:02 27° NE 21:45:37 10° E visible
30 Jul 4.3 23:16:25 10° NW 23:20:37 73° WSW 23:24:46 10° SSE visible
31 Jul 7.4 18:20:43 10° NW 18:22:47 13° N 18:24:52 10° NNE visible
31 Jul 7.3 20:00:26 10° NNW 20:02:42 14° NNE 20:04:58 10° NE visible
31 Jul 6.2 21:38:20 10° NNW 21:42:08 31° NE 21:45:54 10° ESE visible
31 Jul 4.5 23:16:25 10° NW 23:20:33 56° WSW 23:24:38 10° SSE visible
